Simultaneous Nadir Overpasses (SNOs) Predictions

Prediction of SNOs between GOES-14 and NOAA-20 Satellite Orbit:

Table of predicted SNOs for the next 14.0 days since TLE Epoch: 2/4/2023
Index Date Time (GOES-14) GOES-14 Lat,Lon NOAA-20 Lat,Lon Distance(km) Time Diff (sec)
1 02/04/2023 08:45:28 -0.00,-108.44 0.31,-109.72 146.57 80
2 02/05/2023 08:24:06 -0.01,-108.92 -0.85,-105.22 422.50 80
3 02/06/2023 20:46:05 0.00,-109.86 -0.15,-110.56 80.06 80
4 02/07/2023 20:30:03 0.01,-110.36 1.00,-106.06 491.09 80
5 02/09/2023 08:51:51 -0.01,-110.96 0.10,-111.34 44.33 80
6 02/11/2023 20:55:08 0.01,-112.36 0.06,-112.18 20.61 80
7 02/14/2023 08:55:33 -0.01,-113.46 -0.12,-112.96 57.01 80
8 02/15/2023 21:17:33 -0.00,-114.34 -0.86,-118.31 451.86 80
9 02/16/2023 21:01:29 0.00,-114.83 0.24,-113.79 118.59 80
